This is the latest recevied weather packets stored in our database for station/object K6TTR. If no packets are shown the sender has not sent any weather packets the latest 10 day(s).
| Time | Temp. | Humidity | Pressure | Rain* | Wind** | Luminosity | Snow |
|---|---|---|---|---|---|---|---|
| 1777821820 | 11.11° C | 82% | 1014.3 hPa | 0 mm | - | 137 W/m² | - |
| 1777821524 | 11.11° C | 79% | 1014.4 hPa | 0 mm | - | 132 W/m² | - |
| 1777821229 | 11.11° C | 80% | 1014.3 hPa | 0 mm | - | 123 W/m² | - |
| 1777820915 | 10.56° C | 82% | 1014.3 hPa | 0 mm | - | 114 W/m² | - |
| 1777820619 | 10.56° C | 82% | 1014.4 hPa | 0 mm | - | 109 W/m² | - |
| 1777820324 | 10.56° C | 83% | 1014.3 hPa | 0 mm | - | 97 W/m² | - |
| 1777820028 | 10° C | 83% | 1014.4 hPa | 0 mm | - | 93 W/m² | - |
| 1777819714 | 10° C | 83% | 1014.4 hPa | 0 mm | - | 93 W/m² | - |
| 1777819420 | 10° C | 83% | 1014.4 hPa | 0 mm | - | 90 W/m² | - |
| 1777819122 | 9.44° C | 82% | 1014.4 hPa | 0 mm | - | 84 W/m² | - |
| 1777818828 | 9.44° C | 84% | 1014.3 hPa | 0 mm | - | 77 W/m² | - |
| 1777818511 | 9.44° C | 84% | 1014.5 hPa | 0 mm | - | 72 W/m² | - |
| 1777818217 | 9.44° C | 84% | 1014.4 hPa | 0 mm | - | 69 W/m² | - |
| 1777817922 | 8.89° C | 84% | 1014.3 hPa | 0 mm | - | 63 W/m² | - |
| 1777817627 | 8.89° C | 84% | 1014.3 hPa | 0 mm | - | 58 W/m² | - |
| 1777817311 | 8.89° C | 83% | 1014.2 hPa | 0 mm | - | 53 W/m² | - |
| 1777817017 | 8.89° C | 82% | 1014.2 hPa | 0 mm | - | 47 W/m² | - |
| 1777816721 | 9.44° C | 82% | 1014.2 hPa | 0 mm | - | 42 W/m² | - |
| 1777816426 | 9.44° C | 81% | 1014.1 hPa | 0 mm | - | 37 W/m² | - |
| 1777816129 | 9.44° C | 80% | 1014.2 hPa | 0 mm | - | 30 W/m² | - |
| 1777815813 | 9.44° C | 81% | 1014.2 hPa | 0 mm | - | 25 W/m² | - |
| 1777815516 | 8.89° C | 82% | 1014.3 hPa | 0 mm | - | 19 W/m² | - |
| 1777815222 | 8.89° C | 83% | 1014.2 hPa | 0 mm | - | 16 W/m² | - |
| 1777814926 | 8.33° C | 85% | 1014.3 hPa | 0 mm | - | 12 W/m² | - |
| 1777814612 | 8.33° C | 86% | 1014.3 hPa | 0 mm | - | 11 W/m² | - |
* Rain latest hour (hover to see other rain measurements)
** Current wind speed in m/s (hover to see current wind gust speed)